Location: Unspecified
(44.4377°N, 88.0525°W)
Time: 01:46:05
(UTC-05:00)

Okean 3 - Pass Details

Date: 21 April 2019
Orbit: 576 x 602 km, 82.5° (Epoch: 20 May)

Event Time Altitude Azimuth Distance (km) Brightness Sun altitude
Exits shadow 00:56:04 12° 50° (NE) 1,811 6.3 -33.8°
Drops below altitude 10° 00:56:32 10° 45° (NE) 1,927 6.6 -33.8°
Sets 00:59:21 0° 26° (NNE) 2,828 7.8 -33.8°
